Location: Unspecified
(0.0000°N, 0.0000°E)
Time: 19:50:49
(UTC+00:00)

Explorer 7 - Pass Details

Date: 23 June 2025
Orbit: 444 x 569 km, 50.3° (Epoch: 12 July)

Event Time Altitude Azimuth Distance (km) Brightness Sun altitude
Rises 10:05:13 0° 224° (SW) 2,746 10.0 53.2°
Reaches altitude 10° 10:07:32 10° 228° (SW) 1,835 9.2 53.6°
Maximum altitude 10:11:38 56° 306° (NW) 648 7.8 54.4°
Drops below altitude 10° 10:15:35 10° 25° (NNE) 1,764 10.1 55.1°
Sets 10:17:47 0° 30° (NNE) 2,627 10.8 55.5°
